TimeMDT,TemperatureF,Dew PointF,Humidity,Sea Level PressureIn,VisibilityMPH,Wind Direction,Wind SpeedMPH,Gust SpeedMPH,PrecipitationIn,Events,Conditions,WindDirDegrees,DateUTC
12:53 AM,69.1,57.0,65,29.95,10.0,ESE,5.8,-,N/A,,Scattered Clouds,110,2013-08-31 06:53:00
1:53 AM,66.9,57.0,70,29.95,10.0,ESE,8.1,-,0.00,,Clear,120,2013-08-31 07:53:00
2:53 AM,64.0,57.0,78,29.94,10.0,SSE,12.7,-,N/A,,Clear,150,2013-08-31 08:53:00
3:53 AM,64.0,57.0,78,29.91,10.0,SSE,12.7,21.9,N/A,,Clear,160,2013-08-31 09:53:00
4:53 AM,64.0,57.0,78,29.88,10.0,South,10.4,-,N/A,,Clear,170,2013-08-31 10:53:00
5:53 AM,64.0,57.9,80,29.88,10.0,South,11.5,-,N/A,,Clear,170,2013-08-31 11:53:00
6:53 AM,64.9,59.0,81,29.91,10.0,SSW,10.4,-,N/A,,Clear,200,2013-08-31 12:53:00
7:53 AM,71.1,59.0,66,29.92,10.0,SSW,12.7,-,N/A,,Clear,210,2013-08-31 13:53:00
8:53 AM,75.9,59.0,56,29.91,10.0,SW,12.7,-,N/A,,Clear,220,2013-08-31 14:53:00
9:53 AM,81.0,57.9,45,29.90,10.0,SW,15.0,-,N/A,,Clear,230,2013-08-31 15:53:00
10:53 AM,86.0,55.0,35,29.89,10.0,West,15.0,20.7,N/A,,Clear,260,2013-08-31 16:53:00
11:53 AM,89.1,48.0,24,29.87,10.0,West,13.8,24.2,N/A,,Clear,270,2013-08-31 17:53:00
12:53 PM,90.0,45.0,21,29.86,10.0,West,11.5,17.3,N/A,,Clear,270,2013-08-31 18:53:00
1:53 PM,91.9,46.0,21,29.84,10.0,WNW,15.0,-,N/A,,Clear,300,2013-08-31 19:53:00
2:53 PM,93.9,45.0,18,29.82,10.0,WNW,10.4,-,N/A,,Clear,300,2013-08-31 20:53:00
3:53 PM,93.0,45.0,19,29.81,10.0,Variable,6.9,-,N/A,,Clear,0,2013-08-31 21:53:00
4:53 PM,91.0,46.0,21,29.80,10.0,NW,9.2,-,N/A,,Clear,320,2013-08-31 22:53:00
5:53 PM,89.1,46.0,22,29.81,10.0,WNW,10.4,-,N/A,,Clear,300,2013-08-31 23:53:00
6:53 PM,84.0,46.9,27,29.84,10.0,WNW,18.4,-,N/A,,Scattered Clouds,300,2013-09-01 00:53:00
7:53 PM,79.0,48.0,34,29.87,10.0,NW,12.7,-,N/A,,Mostly Cloudy,320,2013-09-01 01:53:00
8:53 PM,78.1,52.0,40,29.88,10.0,NNW,9.2,-,N/A,,Clear,330,2013-09-01 02:53:00
9:50 PM,77.0,57.2,50,30.07,10.0,NE,20.7,28.8,N/A,Thunderstorm,Partly Cloudy,50,2013-09-01 03:50:00
9:53 PM,75.9,57.9,54,29.86,10.0,NE,24.2,31.1,N/A,Thunderstorm,Scattered Clouds,50,2013-09-01 03:53:00
10:11 PM,75.2,59.0,57,30.09,10.0,NE,17.3,31.1,N/A,,Mostly Cloudy,40,2013-09-01 04:11:00
10:53 PM,75.0,57.9,55,29.87,10.0,NNE,9.2,17.3,N/A,,Overcast,20,2013-09-01 04:53:00
11:53 PM,70.0,57.9,65,29.90,10.0,East,3.5,-,N/A,,Clear,90,2013-09-01 05:53:00